• In Russia
  • List of Countries
  • For 7 days
  • Water Temperature
  • Satellite Maps
  • Weather Map
  • Weather Widgets
  • user-avatar
    Login

    Hourly Weather Berat

    Today, 22 May, Monday

    Time Temperature Precipitation Wind Pressure Humidity
    00:00 +15°C° 0 mm 2 mps 742 mmHg 87%
    01:00 +14°C° 0 mm 2 mps 742 mmHg 87%
    02:00 +14°C° 0 mm 2 mps 742 mmHg 86%
    03:00 +14°C° 0 mm 2 mps 742 mmHg 86%
    04:00 +13°C° 0 mm 2 mps 742 mmHg 85%
    05:00 +15°C° 0 mm 2 mps 743 mmHg 79%
    06:00 +18°C° 0 mm 1 mps 743 mmHg 72%
    07:00 +21°C° 0 mm 1 mps 743 mmHg 65%
    08:00 +23°C° 0 mm 2 mps 743 mmHg 59%
    09:00 +24°C° 0 mm 2 mps 743 mmHg 53%
    10:00 +25°C° 0 mm 2 mps 743 mmHg 47%
    11:00 +26°C° 0.1 mm 3 mps 743 mmHg 48%
    12:00 +26°C° 0.1 mm 3 mps 743 mmHg 49%
    13:00 +26°C° 0.1 mm 4 mps 743 mmHg 50%
    14:00 +26°C° 0.3 mm 4 mps 743 mmHg 53%
    15:00 +25°C° 0.3 mm 4 mps 743 mmHg 56%
    16:00 +25°C° 0.3 mm 4 mps 743 mmHg 59%
    17:00 +21°C° 0.2 mm 3 mps 743 mmHg 69%
    18:00 +19°C° 0.2 mm 2 mps 743 mmHg 78%
    19:00 +17°C° 0.2 mm 2 mps 743 mmHg 87%
    20:00 +18°C° 0.1 mm 1 mps 743 mmHg 88%
    21:00 +16°C° 0.1 mm 1 mps 744 mmHg 90%
    22:00 +15°C° 0.1 mm 1 mps 744 mmHg 91%
    23:00 +15°C° 0.1 mm 1 mps 744 mmHg 90%

    Tomorrow, 23 May, Tuesday

    Time Temperature Precipitation Wind Pressure Humidity
    00:00 +15°C° 0.1 mm 1 mps 744 mmHg 90%
    01:00 +15°C° 0.1 mm 1 mps 744 mmHg 90%
    02:00 +14°C° 0 mm 1 mps 744 mmHg 90%
    03:00 +14°C° 0 mm 1 mps 744 mmHg 90%
    04:00 +14°C° 0 mm 1 mps 744 mmHg 90%
    05:00 +16°C° 0 mm 1 mps 744 mmHg 83%
    06:00 +20°C° 0 mm 1 mps 745 mmHg 76%
    07:00 +22°C° 0 mm 1 mps 745 mmHg 69%
    08:00 +23°C° 0.4 mm 1 mps 745 mmHg 65%
    09:00 +25°C° 0.4 mm 1 mps 745 mmHg 62%
    10:00 +26°C° 0.4 mm 2 mps 745 mmHg 58%
    11:00 +26°C° 0.9 mm 2 mps 745 mmHg 59%
    12:00 +26°C° 0.9 mm 3 mps 745 mmHg 60%
    13:00 +26°C° 0.9 mm 3 mps 744 mmHg 62%
    14:00 +25°C° 1.1 mm 3 mps 744 mmHg 64%
    15:00 +25°C° 1.1 mm 3 mps 744 mmHg 66%
    16:00 +24°C° 1.1 mm 2 mps 744 mmHg 69%
    17:00 +21°C° 0.4 mm 2 mps 744 mmHg 76%
    18:00 +20°C° 0.4 mm 1 mps 744 mmHg 83%
    19:00 +18°C° 0.4 mm 1 mps 744 mmHg 90%
    20:00 +16°C° 0 mm 1 mps 745 mmHg 90%
    21:00 +16°C° 0 mm 1 mps 745 mmHg 90%
    22:00 +15°C° 0 mm 1 mps 745 mmHg 91%
    23:00 +15°C° 0 mm 1 mps 745 mmHg 91%

    Day after tomorrow, 24 May, Wednesday

    Time Temperature Precipitation Wind Pressure Humidity
    00:00 +14°C° 0 mm 1 mps 745 mmHg 91%
    01:00 +13°C° 0 mm 0 mps 745 mmHg 92%
    02:00 +13°C° 0 mm 0 mps 745 mmHg 92%
    03:00 +12°C° 0 mm 0 mps 745 mmHg 92%
    04:00 +12°C° 0 mm 0 mps 744 mmHg 92%
    05:00 +15°C° 0 mm 0 mps 745 mmHg 84%
    06:00 +17°C° 0 mm 0 mps 745 mmHg 77%
    07:00 +19°C° 0 mm 0 mps 745 mmHg 69%
    08:00 +23°C° 0 mm 1 mps 745 mmHg 62%
    09:00 +24°C° 0 mm 1 mps 745 mmHg 56%
    10:00 +25°C° 0 mm 2 mps 745 mmHg 49%
    11:00 +26°C° 0.1 mm 2 mps 745 mmHg 49%
    12:00 +26°C° 0.1 mm 3 mps 745 mmHg 49%
    13:00 +26°C° 0.1 mm 4 mps 744 mmHg 49%
    14:00 +26°C° 0.2 mm 3 mps 744 mmHg 52%
    15:00 +25°C° 0.2 mm 3 mps 744 mmHg 55%
    16:00 +24°C° 0.2 mm 2 mps 744 mmHg 59%
    17:00 +21°C° 0.1 mm 2 mps 744 mmHg 68%
    18:00 +20°C° 0.1 mm 1 mps 744 mmHg 77%
    19:00 +18°C° 0.1 mm 1 mps 744 mmHg 86%
    20:00 +16°C° 0 mm 1 mps 744 mmHg 87%
    21:00 +15°C° 0 mm 1 mps 744 mmHg 88%
    22:00 +15°C° 0 mm 1 mps 744 mmHg 89%
    23:00 +14°C° 0 mm 1 mps 744 mmHg 89%

    25 May, Thursday

    Time Temperature Precipitation Wind Pressure Humidity
    00:00 +14°C° 0 mm 1 mps 744 mmHg 89%
    01:00 +14°C° 0 mm 1 mps 743 mmHg 89%
    02:00 +14°C° 0 mm 1 mps 743 mmHg 89%
    03:00 +13°C° 0 mm 1 mps 743 mmHg 88%
    04:00 +13°C° 0 mm 1 mps 743 mmHg 88%
    05:00 +16°C° 0 mm 1 mps 743 mmHg 80%
    06:00 +19°C° 0 mm 1 mps 743 mmHg 72%
    07:00 +22°C° 0 mm 1 mps 743 mmHg 64%
    08:00 +23°C° 0 mm 1 mps 743 mmHg 59%
    09:00 +24°C° 0 mm 2 mps 743 mmHg 55%
    10:00 +25°C° 0 mm 2 mps 743 mmHg 50%
    11:00 +25°C° 0.4 mm 3 mps 743 mmHg 53%
    12:00 +25°C° 0.4 mm 4 mps 743 mmHg 57%
    13:00 +25°C° 0.4 mm 4 mps 743 mmHg 61%
    14:00 +23°C° 0.9 mm 4 mps 743 mmHg 65%
    15:00 +22°C° 0.9 mm 3 mps 743 mmHg 69%
    16:00 +22°C° 0.9 mm 3 mps 742 mmHg 73%
    17:00 +20°C° 0.5 mm 2 mps 743 mmHg 79%
    18:00 +18°C° 0.5 mm 2 mps 743 mmHg 86%
    19:00 +18°C° 0.5 mm 1 mps 743 mmHg 92%
    20:00 +16°C° 0.4 mm 1 mps 743 mmHg 93%
    21:00 +15°C° 0.4 mm 1 mps 743 mmHg 93%
    22:00 +15°C° 0.4 mm 1 mps 743 mmHg 94%
    23:00 +14°C° 0.3 mm 1 mps 743 mmHg 94%

    26 May, Friday

    Time Temperature Precipitation Wind Pressure Humidity
    00:00 +14°C° 0.3 mm 1 mps 743 mmHg 94%
    01:00 +14°C° 0.3 mm 1 mps 742 mmHg 94%
    02:00 +13°C° 0.1 mm 1 mps 742 mmHg 94%
    03:00 +13°C° 0.1 mm 1 mps 742 mmHg 95%
    04:00 +13°C° 0.1 mm 1 mps 742 mmHg 95%
    05:00 +14°C° 0.2 mm 1 mps 742 mmHg 90%
    06:00 +16°C° 0.2 mm 1 mps 742 mmHg 85%
    07:00 +19°C° 0.2 mm 1 mps 742 mmHg 80%
    08:00 +20°C° 0.5 mm 1 mps 742 mmHg 75%
    09:00 +20°C° 0.5 mm 2 mps 742 mmHg 71%
    10:00 +21°C° 0.5 mm 2 mps 742 mmHg 66%
    11:00 +21°C° 0.8 mm 2 mps 741 mmHg 65%
    12:00 +21°C° 0.8 mm 3 mps 741 mmHg 65%
    13:00 +21°C° 0.8 mm 3 mps 741 mmHg 65%
    14:00 +20°C° 0.8 mm 3 mps 741 mmHg 66%
    15:00 +20°C° 0.8 mm 3 mps 740 mmHg 67%
    16:00 +19°C° 0.8 mm 4 mps 740 mmHg 68%
    17:00 +18°C° 0.4 mm 3 mps 740 mmHg 74%
    18:00 +16°C° 0.4 mm 3 mps 741 mmHg 79%
    19:00 +15°C° 0.4 mm 2 mps 741 mmHg 85%
    20:00 +14°C° 0.1 mm 2 mps 741 mmHg 86%
    21:00 +14°C° 0.1 mm 2 mps 741 mmHg 87%
    22:00 +13°C° 0.1 mm 2 mps 741 mmHg 88%
    23:00 +13°C° 0.2 mm 2 mps 741 mmHg 87%

    27 May, Saturday

    Time Temperature Precipitation Wind Pressure Humidity
    00:00 +13°C° 0.2 mm 2 mps 741 mmHg 87%
    01:00 +13°C° 0.2 mm 1 mps 741 mmHg 86%
    02:00 +13°C° 0.3 mm 2 mps 741 mmHg 86%
    03:00 +13°C° 0.3 mm 2 mps 741 mmHg 87%
    04:00 +13°C° 0.3 mm 2 mps 741 mmHg 87%
    05:00 +14°C° 0.1 mm 2 mps 741 mmHg 83%
    06:00 +16°C° 0.1 mm 2 mps 741 mmHg 78%
    07:00 +17°C° 0.1 mm 2 mps 742 mmHg 74%
    08:00 +19°C° 0 mm 2 mps 742 mmHg 67%
    09:00 +21°C° 0 mm 2 mps 742 mmHg 59%
    10:00 +23°C° 0 mm 2 mps 742 mmHg 52%
    11:00 +24°C° 0.2 mm 2 mps 742 mmHg 51%
    12:00 +24°C° 0.2 mm 3 mps 742 mmHg 51%
    13:00 +25°C° 0.2 mm 3 mps 742 mmHg 50%
    14:00 +24°C° 0.4 mm 3 mps 742 mmHg 55%
    15:00 +23°C° 0.4 mm 4 mps 742 mmHg 59%
    16:00 +22°C° 0.4 mm 4 mps 742 mmHg 64%
    17:00 +20°C° 0.1 mm 3 mps 742 mmHg 71%
    18:00 +19°C° 0.1 mm 3 mps 742 mmHg 78%
    19:00 +17°C° 0.1 mm 2 mps 742 mmHg 85%
    20:00 +16°C° 0 mm 2 mps 743 mmHg 86%
    21:00 +16°C° 0 mm 2 mps 743 mmHg 86%
    22:00 +15°C° 0 mm 2 mps 743 mmHg 86%
    23:00 +15°C° 0 mm 2 mps 743 mmHg 86%
    Show more